When you browse on this site, cookies collect data to enhance your experience and personalize the content and advertising you see.
Visit our Privacy Policy to learn more. By continuing to use the site, you agree to this use of cookies and data.
  • In Hungary
  • List of Countries
  • For 7 days
  • Water Temperature
  • Satellite Maps
  • Weather Map
  • News
  • Weather Widgets
  • user-avatar
    Login

    Hourly Weather Maracay

    Today, 20 July, Saturday

    Time Temperature Precipitation Wind Pressure Humidity
    00:00 +23°C° 0 mm 1 mps 712 mmHg 89%
    01:00 +23°C° 0 mm 1 mps 712 mmHg 89%
    02:00 +23°C° 0 mm 1 mps 711 mmHg 89%
    03:00 +22°C° 0 mm 1 mps 711 mmHg 90%
    04:00 +22°C° 0 mm 1 mps 711 mmHg 90%
    05:00 +23°C° 0 mm 1 mps 711 mmHg 89%
    06:00 +24°C° 0 mm 1 mps 712 mmHg 87%
    07:00 +25°C° 0 mm 1 mps 712 mmHg 85%
    08:00 +26°C° 0 mm 1 mps 713 mmHg 79%
    09:00 +27°C° 0 mm 2 mps 713 mmHg 72%
    10:00 +29°C° 0 mm 2 mps 713 mmHg 66%
    11:00 +29°C° 0 mm 2 mps 713 mmHg 64%
    12:00 +30°C° 0 mm 3 mps 712 mmHg 61%
    13:00 +31°C° 0 mm 3 mps 711 mmHg 59%
    14:00 +30°C° 0 mm 3 mps 711 mmHg 61%
    15:00 +30°C° 0 mm 2 mps 711 mmHg 63%
    16:00 +30°C° 0 mm 2 mps 710 mmHg 65%
    17:00 +28°C° 0 mm 1 mps 710 mmHg 73%
    18:00 +26°C° 0 mm 1 mps 710 mmHg 80%
    19:00 +24°C° 0 mm 1 mps 711 mmHg 88%
    20:00 +24°C° 0 mm 1 mps 711 mmHg 89%
    21:00 +24°C° 0 mm 1 mps 711 mmHg 90%
    22:00 +23°C° 0 mm 1 mps 712 mmHg 90%
    23:00 +23°C° 0 mm 1 mps 712 mmHg 90%

    Tomorrow, 21 July, Sunday

    Time Temperature Precipitation Wind Pressure Humidity
    00:00 +23°C° 0 mm 1 mps 711 mmHg 89%
    01:00 +23°C° 0 mm 1 mps 711 mmHg 89%
    02:00 +22°C° 0 mm 1 mps 711 mmHg 88%
    03:00 +22°C° 0 mm 1 mps 711 mmHg 88%
    04:00 +22°C° 0 mm 1 mps 710 mmHg 87%
    05:00 +23°C° 0 mm 1 mps 711 mmHg 85%
    06:00 +24°C° 0 mm 1 mps 711 mmHg 82%
    07:00 +24°C° 0 mm 1 mps 712 mmHg 80%
    08:00 +26°C° 0 mm 1 mps 712 mmHg 72%
    09:00 +27°C° 0 mm 2 mps 713 mmHg 64%
    10:00 +29°C° 0 mm 2 mps 713 mmHg 56%
    11:00 +29°C° 0 mm 3 mps 712 mmHg 55%
    12:00 +29°C° 0 mm 3 mps 712 mmHg 53%
    13:00 +30°C° 0 mm 3 mps 711 mmHg 52%
    14:00 +30°C° 0 mm 3 mps 711 mmHg 55%
    15:00 +29°C° 0 mm 2 mps 710 mmHg 58%
    16:00 +29°C° 0 mm 2 mps 709 mmHg 61%
    17:00 +27°C° 0 mm 2 mps 710 mmHg 69%
    18:00 +25°C° 0 mm 1 mps 710 mmHg 76%
    19:00 +24°C° 0 mm 1 mps 710 mmHg 84%
    20:00 +23°C° 0 mm 1 mps 711 mmHg 84%
    21:00 +23°C° 0 mm 1 mps 711 mmHg 84%
    22:00 +23°C° 0 mm 1 mps 712 mmHg 84%
    23:00 +23°C° 0 mm 1 mps 711 mmHg 84%

    Day after tomorrow, 22 July, Monday

    Time Temperature Precipitation Wind Pressure Humidity
    00:00 +22°C° 0 mm 1 mps 711 mmHg 84%
    01:00 +22°C° 0 mm 1 mps 710 mmHg 84%
    02:00 +22°C° 0 mm 1 mps 710 mmHg 84%
    03:00 +22°C° 0 mm 1 mps 710 mmHg 85%
    04:00 +22°C° 0 mm 1 mps 710 mmHg 85%
    05:00 +23°C° 0 mm 1 mps 711 mmHg 83%
    06:00 +24°C° 0 mm 1 mps 711 mmHg 81%
    07:00 +25°C° 0 mm 1 mps 712 mmHg 79%
    08:00 +26°C° 0.2 mm 1 mps 712 mmHg 76%
    09:00 +27°C° 0.2 mm 2 mps 712 mmHg 73%
    10:00 +28°C° 0.2 mm 2 mps 713 mmHg 70%
    11:00 +28°C° 1.3 mm 2 mps 712 mmHg 73%
    12:00 +28°C° 1.3 mm 3 mps 712 mmHg 76%
    13:00 +28°C° 1.3 mm 3 mps 711 mmHg 78%
    14:00 +28°C° 1 mm 3 mps 711 mmHg 78%
    15:00 +28°C° 1 mm 2 mps 710 mmHg 78%
    16:00 +28°C° 1 mm 2 mps 710 mmHg 78%
    17:00 +27°C° 0.2 mm 2 mps 710 mmHg 81%
    18:00 +26°C° 0.2 mm 1 mps 710 mmHg 85%
    19:00 +25°C° 0.2 mm 1 mps 711 mmHg 88%
    20:00 +24°C° 0 mm 1 mps 711 mmHg 87%
    21:00 +24°C° 0 mm 1 mps 712 mmHg 87%
    22:00 +24°C° 0 mm 1 mps 712 mmHg 87%
    23:00 +24°C° 0.1 mm 1 mps 712 mmHg 87%

    23 July, Tuesday

    Time Temperature Precipitation Wind Pressure Humidity
    00:00 +24°C° 0.1 mm 1 mps 711 mmHg 86%
    01:00 +24°C° 0.1 mm 1 mps 711 mmHg 86%
    02:00 +24°C° 0.1 mm 1 mps 711 mmHg 86%
    03:00 +23°C° 0.1 mm 1 mps 711 mmHg 86%
    04:00 +23°C° 0.1 mm 1 mps 711 mmHg 87%
    05:00 +24°C° 0 mm 1 mps 711 mmHg 85%
    06:00 +25°C° 0 mm 1 mps 712 mmHg 83%
    07:00 +25°C° 0 mm 1 mps 712 mmHg 81%
    08:00 +27°C° 0 mm 1 mps 713 mmHg 75%
    09:00 +28°C° 0 mm 2 mps 713 mmHg 68%
    10:00 +29°C° 0 mm 2 mps 713 mmHg 62%
    11:00 +30°C° 0.2 mm 3 mps 713 mmHg 62%
    12:00 +30°C° 0.2 mm 3 mps 712 mmHg 63%
    13:00 +30°C° 0.2 mm 3 mps 711 mmHg 63%
    14:00 +30°C° 0.3 mm 3 mps 711 mmHg 67%
    15:00 +29°C° 0.3 mm 2 mps 711 mmHg 71%
    16:00 +28°C° 0.3 mm 2 mps 710 mmHg 74%
    17:00 +27°C° 0.4 mm 2 mps 710 mmHg 79%
    18:00 +26°C° 0.4 mm 2 mps 711 mmHg 84%
    19:00 +24°C° 0.4 mm 2 mps 711 mmHg 88%
    20:00 +24°C° 0.1 mm 1 mps 712 mmHg 88%
    21:00 +24°C° 0.1 mm 1 mps 712 mmHg 88%
    22:00 +24°C° 0.1 mm 1 mps 713 mmHg 88%
    23:00 +24°C° 0 mm 1 mps 712 mmHg 89%

    24 July, Wednesday

    Time Temperature Precipitation Wind Pressure Humidity
    00:00 +23°C° 0 mm 1 mps 712 mmHg 90%
    01:00 +23°C° 0 mm 1 mps 711 mmHg 90%
    02:00 +23°C° 0 mm 1 mps 711 mmHg 91%
    03:00 +23°C° 0 mm 1 mps 711 mmHg 91%
    04:00 +23°C° 0 mm 1 mps 711 mmHg 91%
    05:00 +23°C° 0 mm 1 mps 711 mmHg 90%
    06:00 +24°C° 0 mm 1 mps 712 mmHg 88%
    07:00 +24°C° 0 mm 1 mps 712 mmHg 86%
    08:00 +26°C° 0 mm 1 mps 713 mmHg 79%
    09:00 +27°C° 0 mm 2 mps 713 mmHg 72%
    10:00 +29°C° 0 mm 2 mps 713 mmHg 65%
    11:00 +29°C° 0.2 mm 2 mps 713 mmHg 63%
    12:00 +30°C° 0.2 mm 2 mps 712 mmHg 62%
    13:00 +30°C° 0.2 mm 2 mps 711 mmHg 60%
    14:00 +30°C° 0.3 mm 2 mps 711 mmHg 64%
    15:00 +29°C° 0.3 mm 2 mps 711 mmHg 69%
    16:00 +28°C° 0.3 mm 2 mps 710 mmHg 73%
    17:00 +27°C° 0.1 mm 2 mps 710 mmHg 78%
    18:00 +26°C° 0.1 mm 2 mps 711 mmHg 83%
    19:00 +24°C° 0.1 mm 1 mps 711 mmHg 88%
    20:00 +24°C° 0 mm 1 mps 711 mmHg 88%
    21:00 +23°C° 0 mm 1 mps 712 mmHg 89%
    22:00 +23°C° 0 mm 1 mps 712 mmHg 89%
    23:00 +23°C° 0 mm 1 mps 711 mmHg 89%

    25 July, Thursday

    Time Temperature Precipitation Wind Pressure Humidity
    00:00 +23°C° 0 mm 1 mps 711 mmHg 90%
    01:00 +22°C° 0 mm 1 mps 710 mmHg 90%
    02:00 +22°C° 0 mm 1 mps 710 mmHg 90%
    03:00 +20°C° 0 mm 0 mps 710 mmHg 90%
    04:00 +20°C° 0 mm 0 mps 710 mmHg 90%
    05:00 +21°C° 0 mm 0 mps 711 mmHg 88%
    06:00 +22°C° 0 mm 0 mps 711 mmHg 86%
    07:00 +22°C° 0 mm 0 mps 712 mmHg 84%
    08:00 +26°C° 0 mm 1 mps 712 mmHg 77%
    09:00 +27°C° 0 mm 1 mps 712 mmHg 70%
    10:00 +29°C° 0 mm 2 mps 713 mmHg 62%
    11:00 +29°C° 0.2 mm 2 mps 712 mmHg 63%
    12:00 +29°C° 0.2 mm 2 mps 712 mmHg 64%
    13:00 +29°C° 0.2 mm 2 mps 711 mmHg 65%
    14:00 +29°C° 0.4 mm 2 mps 711 mmHg 67%
    15:00 +29°C° 0.4 mm 2 mps 710 mmHg 70%
    16:00 +28°C° 0.4 mm 2 mps 710 mmHg 72%
    17:00 +27°C° 0.2 mm 2 mps 710 mmHg 78%
    18:00 +26°C° 0.2 mm 1 mps 711 mmHg 83%
    19:00 +24°C° 0.2 mm 1 mps 711 mmHg 89%
    20:00 +24°C° 0.4 mm 1 mps 711 mmHg 89%
    21:00 +24°C° 0.4 mm 1 mps 712 mmHg 89%
    22:00 +23°C° 0.4 mm 1 mps 712 mmHg 90%
    23:00 +23°C° 0.5 mm 1 mps 712 mmHg 90%
    Show more